Location: Unspecified
(0.0000°N, 0.0000°E)
Time: 16:56:42
(UTC+00:00)

Envisat - Pass Details

Date: 30 September 2022
Orbit: 764 x 765 km, 98.2° (Epoch: 26 September)

Event Time Altitude Azimuth Distance (km) Brightness Sun altitude
Rises 04:22:09 0° 358° (N) 3,213 6.2 -22.0°
Reaches altitude 10° 04:24:33 10° 351° (N) 2,290 5.3 -21.4°
Enters shadow 04:29:10 41° 285° (WNW) 1,104 3.3 -20.2°
Exits shadow 04:35:31 - 208° (SSW) 2,871 5.7 -18.6°
Sets 04:36:26 0° 205° (SSW) 3,229 6.0 -18.4°
